STARLINK-11247, 60720

Orbit data source: Space-Track

STARLINK-11247, 60720 is a payload satellite owned by SpaceX/Seattle (US) in LEO that was launched on Wed, 28 Aug 2024 UTC via an FALCON 9 launch vehicle from the Air Force Eastern Test Range (AFETR). Payload-class satellites include a variety of spacecraft equipped with specific instruments for various scientific and technological missions. These include communications satellites like Starlink; space stations such as the ISS; scientific satellites like the Hubble; Earth observation satellites from companies like Planet Labs, Umbra, and HawkEye 360; GPS; miniature CubeSats for education and research; and military/defense satellites.

Loading next visibility...
Identifier
60720, 2024-152A
Orbit
LEO
Last TLE update
21 hours ago
Origin
Manufacturer
SpaceX/Seattle
Mission
Operational Commercial Communications
Bus & Motor
STARLINK V2M, Unknown motor
Mass
730 kg wet, ~700 kg dry
Launch date (UTC)
2024-08-28 (8 months ago)
Launch vehicle
FALCON 9
Launch site
Air Force Eastern Test Range (AFETR)
Object type
Payload
Rocket body
Debris
Shape & HBR
Box + 2 Pan, 29 m
Radar Cross Section
36.964 m², Large (>1 m²)

Expand to show TLE details & history

TLE from 21 hours ago
0 STARLINK-11247
1 60720U 24152A   25128.41358899  .00000056  00000-0  53231-5 0  9994
2 60720  53.1591 181.4789 0001217  88.8052 271.3105 15.69710461 40880
Epoch: 2025-05-08T09:55Z
Definitive object data (Epoch: 2025-05-08T09:55:34.088Z)
Latitude
-0.00006°
Longitude
166.10238°
Altitude
360.622 km
Speed
7.694 km/s
True Right ascension
12h 05m 54s
True Declination
0° 00' 00"
Sunlit
Object was in full shadow at TLE epoch
Visualization TLE readout
Latitude
-13.89527°
Longitude
-7.53039°
Altitude
363.682 km
Speed
7.691 km/s
Apparent Right ascension
01h 28m 56s
Apparent Declination
-27° 23' 34"
Sunlit
Object is in daylight
Visualization observer readout
Local Sidereal Time
14:46:31
Azimuth
57.963° ENE
Elevation
-69.646°
Doppler factor
1
Orbital elements
Apogee altitude
360.806 km
Perigee altitude
359.166 km
Semi-major axis
6,738.123 km
Eccentricity
0.0001217
Inclination
53.1591°
RAAN
181.4789°
Arg. of periapsis
88.8052°
True anomaly
271.29656°
Mean anomaly
271.3105°
Eccentric anomaly
271.30353°
Mean motion
3.92405 °/min
BSTAR
0.0000053231
Orbital period
91.74 mins
Loading maneuver chart data...
Loading SW <> Apogee altitude chart data...
Loading historical data...
Loading historical data...
Loading historical data...
Loading historical data...
Loading historical data...
Loading historical data...
Loading historical data...

STARLINK-11247 Visibility forecast

Observer location: undefined°, undefined°

Span
Click to sort rows by Start time (UTC) header in descending order
Start Az.
Max El. time (UTC)
Max El. Az.
Max El.
End time (UTC)
End Az.
4 mins2025-05-09 12:23:39.532Z339.516° N2025-05-09 12:24:39.532Z10.877° NNE29.514°2025-05-09 12:27:39.532Z103.298° ESE
|